Location: Milton Keynes
(52.0316°N, 0.7531°W)
Time: 21:55:45
(UTC+01:00)

GENESIS II - Visible Passes

Search period start: 25 September 2020 00:00
Search period end: 05 October 2020 00:00
Orbit: 490 x 537 km, 64.5° (Epoch: 25 September)

Date Brightness Start Highest point End Pass type
(mag) Time Alt. Az. Time Alt. Az. Time Alt. Az.
25 Sep 6.7 03:18:43 19° E 03:18:43 19° E 03:20:24 10° ENE visible
25 Sep 4.5 04:53:41 45° W 04:54:27 54° NW 04:58:27 10° NE visible
26 Sep 7.0 03:03:00 15° ENE 03:03:00 15° ENE 03:04:01 10° ENE visible
26 Sep 4.5 04:37:57 53° NW 04:38:04 54° NW 04:42:03 10° NE visible
26 Sep 6.2 06:13:39 10° WNW 06:16:32 18° NNW 06:19:25 10° NNE visible
27 Sep 7.4 02:47:14 12° ENE 02:47:14 12° ENE 02:47:39 10° ENE visible
27 Sep 4.8 04:22:11 50° NNW 04:22:11 50° NNW 04:25:40 10° NE visible
27 Sep 6.2 05:57:17 10° WNW 06:00:09 18° NNW 06:03:01 10° NNE visible
28 Sep 5.4 04:06:23 40° N 04:06:23 40° N 04:09:17 10° NE visible
28 Sep 6.2 05:41:20 12° WNW 05:43:46 18° NNW 05:46:38 10° NNE visible
29 Sep 5.9 03:50:33 31° NNE 03:50:33 31° NNE 03:52:54 10° NE visible
29 Sep 6.3 05:25:30 14° NW 05:27:23 18° NNW 05:30:15 10° NNE visible
30 Sep 6.5 03:34:43 24° NNE 03:34:43 24° NNE 03:36:30 10° NE visible
30 Sep 6.2 05:09:39 16° NW 05:11:01 18° NNW 05:13:51 10° NNE visible
01 Oct 6.9 03:18:50 19° NNE 03:18:50 19° NNE 03:20:06 10° NE visible
01 Oct 6.2 04:53:47 17° NW 04:54:37 18° NNW 04:57:28 10° NNE visible
01 Oct 6.7 06:31:27 10° NNW 06:33:42 14° N 06:35:56 10° NE visible
02 Oct 7.2 03:02:58 15° NNE 03:02:58 15° NNE 03:03:43 10° NE visible
02 Oct 6.3 04:37:54 18° NNW 04:38:14 18° NNW 04:41:04 10° NNE visible
02 Oct 6.7 06:15:04 10° NNW 06:17:18 14° N 06:19:33 10° NE visible
03 Oct 7.5 02:47:04 11° NE 02:47:04 11° NE 02:47:19 10° NE visible
03 Oct 6.4 04:22:01 18° NNW 04:22:01 18° NNW 04:24:40 10° NNE visible
03 Oct 6.7 05:58:41 10° NNW 06:00:55 14° N 06:03:10 10° NE visible
04 Oct 6.6 04:06:07 17° N 04:06:07 17° N 04:08:16 10° NNE visible
04 Oct 6.8 05:42:17 10° NNW 05:44:32 14° N 05:46:46 10° NE visible
